����,���ϕ���(m/s),���ϕ���,�ő�u�ԕ���(m/s),�ő啗��������,�C��(��),���x(%),10���Ԉړ��ώZ�J��(mm),1���Ԉړ��ώZ�J��(mm),���J��(mm),�݌v�J��(mm),����(���ώZ)(MJ/m2),����(���ώZ)(min),���n�C��(hPa),�C�ʋC��(hPa)
2023-02-27T00:00:00+09:00,0.9,�k�k��,1.9,�k�k��,1.8,83.4,0,0,1,1,7.06,118,1021.2,1036
2023-02-27T00:01:00+09:00,0.8,�k,1.9,�k�k��,1.7,83.4,0,0,0,1,0,0,1021.1,1035.9
2023-02-27T00:02:00+09:00,0.8,�k,1.9,�k�k��,1.7,83.3,0,0,0,1,0,0,1021.1,1035.9
2023-02-27T00:03:00+09:00,0.8,�k,1.9,�k�k��,1.7,83.4,0,0,0,1,0,0,1021.1,1035.9
2023-02-27T00:04:00+09:00,0.7,�k,1.9,�k�k��,1.7,83.4,0,0,0,1,0,0,1021.1,1035.9
2023-02-27T00:05:00+09:00,0.7,�k,1.9,�k�k��,1.7,83.1,0,0,0,1,0,0,1021.1,1035.9
2023-02-27T00:06:00+09:00,0.7,�k,1.7,�k,1.7,83.2,0,0,0,1,0,0,1021,1035.8
2023-02-27T00:07:00+09:00,0.6,�k�k��,1.7,�k,1.6,83.1,0,0,0,1,0,0,1021,1035.8
2023-02-27T00:08:00+09:00,0.7,�k�k��,1.7,�k,1.6,82.8,0,0,0,1,0,0,1021,1035.8
2023-02-27T00:09:00+09:00,0.7,�k�k��,1.7,�k,1.6,82.9,0,0,0,1,0,0,1021,1035.8
2023-02-27T00:10:00+09:00,0.8,�k�k��,1.7,�k,1.5,82.8,0,0,0,1,0,0,1021,1035.8
2023-02-27T00:11:00+09:00,0.8,�k�k��,1.6,�k��,1.6,82.9,0,0,0,1,0,0,1021.1,1035.9
2023-02-27T00:12:00+09:00,0.7,�k��,1.6,�k��,1.7,83.4,0,0,0,1,0,0,1021.1,1035.9
2023-02-27T00:13:00+09:00,0.7,�k��,1.6,�k��,1.6,83.2,0,0,0,1,0,0,1021,1035.8
2023-02-27T00:14:00+09:00,0.7,�k��,1.6,�k��,1.6,83.1,0,0,0,1,0,0,1021,1035.8
2023-02-27T00:15:00+09:00,0.7,�k��,1.6,�k��,1.5,83,0,0,0,1,0,0,1021,1035.8
2023-02-27T00:16:00+09:00,0.6,�k��,1.6,�k��,1.5,83,0,0,0,1,0,0,1021.1,1035.9
2023-02-27T00:17:00+09:00,0.5,�k��,1.6,�k��,1.6,83.3,0,0,0,1,0,0,1021.1,1035.9
2023-02-27T00:18:00+09:00,0.5,�k��,1.4,���k��,1.8,83.7,0,0,0,1,0,0,1021,1035.8
2023-02-27T00:19:00+09:00,0.4,�k��,1.3,���k��,1.8,83.8,0,0,0,1,0,0,1021,1035.8
2023-02-27T00:20:00+09:00,0.3,�k��,1.1,�k��,1.7,83.5,0,0,0,1,0,0,1021,1035.8
2023-02-27T00:21:00+09:00,0.2,�É�,0.8,�k�k��,1.5,83.1,0,0,0,1,0,0,1021,1035.8
2023-02-27T00:22:00+09:00,0.2,�É�,0.8,�k�k��,1.7,83.1,0,0,0,1,0,0,1021,1035.8
2023-02-27T00:23:00+09:00,0.2,�É�,0.8,�k�k��,1.8,83.6,0,0,0,1,0,0,1021,1035.8
2023-02-27T00:24:00+09:00,0.2,�É�,0.5,��,1.6,83.2,0,0,0,1,0,0,1021,1035.8
2023-02-27T00:25:00+09:00,0.2,�É�,0.5,��,1.7,83.2,0,0,0,1,0,0,1020.9,1035.7
2023-02-27T00:26:00+09:00,0.2,�É�,0.5,��,1.8,83.4,0,0,0,1,0,0,1020.9,1035.7
2023-02-27T00:27:00+09:00,0.2,�É�,0.7,���k��,1.5,83.3,0,0,0,1,0,0,1020.8,1035.6
2023-02-27T00:28:00+09:00,0.2,�É�,0.7,���k��,1.6,83.1,0,0,0,1,0,0,1020.9,1035.7
2023-02-27T00:29:00+09:00,0.2,�É�,1.1,���k��,1.6,83,0,0,0,1,0,0,1020.9,1035.7
2023-02-27T00:30:00+09:00,0.3,�k��,1.3,�k��,1.6,83.3,0,0,0,1,0,0,1020.9,1035.7
2023-02-27T00:31:00+09:00,0.3,�k��,1.3,�k��,1.6,83,0,0,0,1,0,0,1020.9,1035.7
2023-02-27T00:32:00+09:00,0.3,�k�k��,1.3,�k��,1.7,83.3,0,0,0,1,0,0,1020.9,1035.7
2023-02-27T00:33:00+09:00,0.3,�k�k��,1.3,�k��,1.7,83.4,0,0,0,1,0,0,1021,1035.8
2023-02-27T00:34:00+09:00,0.4,�k�k��,1.3,�k��,1.7,83.1,0,0,0,1,0,0,1021,1035.8
2023-02-27T00:35:00+09:00,0.4,�k�k��,1.3,�k��,1.7,82.9,0,0,0,1,0,0,1021,1035.8
2023-02-27T00:36:00+09:00,0.5,�k,1.4,��,1.8,82.9,0,0,0,1,0,0,1020.9,1035.7
2023-02-27T00:37:00+09:00,0.6,�k�k��,1.4,��,1.7,82.9,0,0,0,1,0,0,1020.9,1035.7
2023-02-27T00:38:00+09:00,0.6,�k��,1.4,��,1.7,82.8,0,0,0,1,0,0,1020.9,1035.7
2023-02-27T00:39:00+09:00,0.6,�k��,1.4,��,1.8,83.1,0,0,0,1,0,0,1020.9,1035.7
2023-02-27T00:40:00+09:00,0.6,�k��,1.6,�k��,1.8,83.1,0,0,0,1,0,0,1020.9,1035.7
2023-02-27T00:41:00+09:00,0.7,�k��,1.8,�k��,1.7,83.1,0,0,0,1,0,0,1020.9,1035.7
2023-02-27T00:42:00+09:00,0.8,�k��,1.8,�k��,1.9,83.1,0,0,0,1,0,0,1020.8,1035.6
2023-02-27T00:43:00+09:00,0.9,�k��,2.3,�k,1.8,83,0,0,0,1,0,0,1020.8,1035.6
2023-02-27T00:44:00+09:00,1,�k��,2.4,�k�k��,2.1,83.2,0,0,0,1,0,0,1020.8,1035.6
2023-02-27T00:45:00+09:00,1.1,�k��,2.6,�k,2.2,83.6,0,0,0,1,0,0,1020.8,1035.6
2023-02-27T00:46:00+09:00,1.2,�k��,2.6,�k,2.1,82.8,0,0,0,1,0,0,1020.8,1035.6
2023-02-27T00:47:00+09:00,1.2,�k��,2.6,�k,2.1,82.3,0,0,0,1,0,0,1020.8,1035.6
2023-02-27T00:48:00+09:00,1.3,�k�k��,2.6,�k,2,81.8,0,0,0,1,0,0,1020.8,1035.6
2023-02-27T00:49:00+09:00,1.4,�k��,2.6,�k,2,81.4,0,0,0,1,0,0,1020.8,1035.6
2023-02-27T00:50:00+09:00,1.4,�k��,2.6,�k,2.1,81.2,0,0,0,1,0,0,1020.8,1035.6
2023-02-27T00:51:00+09:00,1.5,�k��,2.6,�k,2.1,81.2,0,0,0,1,0,0,1020.8,1035.6
2023-02-27T00:52:00+09:00,1.6,�k��,2.6,�k,2.2,80.9,0,0,0,1,0,0,1020.9,1035.7
2023-02-27T00:53:00+09:00,1.6,�k��,3,�k��,2.2,80.7,0,0,0,1,0,0,1020.8,1035.6
2023-02-27T00:54:00+09:00,1.6,�k��,3,�k��,2.3,80.5,0,0,0,1,0,0,1020.7,1035.5
2023-02-27T00:55:00+09:00,1.6,�k��,3,�k��,2.3,80.3,0,0,0,1,0,0,1020.8,1035.6
2023-02-27T00:56:00+09:00,1.7,�k��,3,�k��,2.3,79.9,0,0,0,1,0,0,1020.8,1035.6
2023-02-27T00:57:00+09:00,1.8,�k��,3,�k��,2.3,79.4,0,0,0,1,0,0,1020.8,1035.6
2023-02-27T00:58:00+09:00,1.8,�k��,3,�k��,2.5,79.4,0,0,0,1,0,0,1020.7,1035.4
2023-02-27T00:59:00+09:00,1.8,�k��,3,�k��,2.4,79,0,0,0,1,0,0,1020.8,1035.6
2023-02-27T01:00:00+09:00,1.8,�k��,3,�k��,2.3,78.2,0,0,0,1,0,0,1020.7,1035.5
2023-02-27T01:01:00+09:00,1.8,�k��,3,�k��,2.3,77.9,0,0,0,1,0,0,1020.7,1035.5
2023-02-27T01:02:00+09:00,1.8,�k��,3,�k��,2.4,78.1,0,0,0,1,0,0,1020.8,1035.6
2023-02-27T01:03:00+09:00,1.7,�k�k��,2.8,�k�k��,2.4,77.7,0,0,0,1,0,0,1020.8,1035.6
2023-02-27T01:04:00+09:00,1.7,�k�k��,2.8,�k�k��,2.4,77.9,0,0,0,1,0,0,1020.8,1035.6
2023-02-27T01:05:00+09:00,1.6,�k�k��,2.8,�k�k��,2.5,77.8,0,0,0,1,0,0,1020.7,1035.4
2023-02-27T01:06:00+09:00,1.6,�k�k��,2.8,�k�k��,2.5,77.6,0,0,0,1,0,0,1020.7,1035.4
2023-02-27T01:07:00+09:00,1.5,�k�k��,2.8,�k�k��,2.4,77.4,0,0,0,1,0,0,1020.7,1035.5
2023-02-27T01:08:00+09:00,1.3,�k�k��,2.6,�k�k��,2.4,77.2,0,0,0,1,0,0,1020.8,1035.6
2023-02-27T01:09:00+09:00,1.2,�k�k��,2.6,�k�k��,2.4,77.2,0,0,0,1,0,0,1020.8,1035.6
2023-02-27T01:10:00+09:00,1.1,�k,2.6,�k�k��,2.4,77,0,0,0,1,0,0,1020.8,1035.6
2023-02-27T01:11:00+09:00,1,�k,2.6,�k�k��,2.4,77.1,0,0,0,1,0,0,1020.7,1035.5
2023-02-27T01:12:00+09:00,0.9,�k,2.6,�k�k��,2.4,76.9,0,0,0,1,0,0,1020.7,1035.5
2023-02-27T01:13:00+09:00,0.8,�k�k��,2.4,�k,2.5,77.1,0,0,0,1,0,0,1020.7,1035.4
2023-02-27T01:14:00+09:00,0.7,�k�k��,2.1,�k�k��,2.4,77,0,0,0,1,0,0,1020.8,1035.6
2023-02-27T01:15:00+09:00,0.7,�k�k��,2.1,�k�k��,2.5,76.9,0,0,0,1,0,0,1020.8,1035.6
2023-02-27T01:16:00+09:00,0.6,�k�k��,1.5,�k�k��,2.5,76.6,0,0,0,1,0,0,1020.8,1035.6
2023-02-27T01:17:00+09:00,0.5,�k�k��,1.5,�k�k��,2.6,76.5,0,0,0,1,0,0,1020.8,1035.5
2023-02-27T01:18:00+09:00,0.5,�k�k��,1.5,�k�k��,2.7,76.3,0,0,0,1,0,0,1020.8,1035.5
2023-02-27T01:19:00+09:00,0.5,�k��,1.4,�k,2.7,75.9,0,0,0,1,0,0,1020.8,1035.5
2023-02-27T01:20:00+09:00,0.5,�k��,1.2,�k�k��,2.7,75.3,0,0,0,1,0,0,1020.9,1035.6
2023-02-27T01:21:00+09:00,0.5,�k��,1.2,�k�k��,2.7,74.9,0,0,0,1,0,0,1020.9,1035.6
2023-02-27T01:22:00+09:00,0.5,�k��,1.2,�k�k��,2.7,74.6,0,0,0,1,0,0,1020.8,1035.5
2023-02-27T01:23:00+09:00,0.5,�k��,1.2,�k�k��,2.7,74.5,0,0,0,1,0,0,1020.8,1035.5
2023-02-27T01:24:00+09:00,0.5,�k��,1.2,�k�k��,2.7,74.1,0,0,0,1,0,0,1020.9,1035.6
2023-02-27T01:25:00+09:00,0.6,�k��,1.6,�k�k��,2.6,73.9,0,0,0,1,0,0,1020.9,1035.6
2023-02-27T01:26:00+09:00,0.6,�k��,1.6,�k�k��,2.6,73.8,0,0,0,1,0,0,1020.9,1035.6
2023-02-27T01:27:00+09:00,0.6,�k��,1.6,�k�k��,2.7,73.9,0,0,0,1,0,0,1020.8,1035.5
2023-02-27T01:28:00+09:00,0.6,�k��,1.6,�k�k��,2.7,73.8,0,0,0,1,0,0,1020.8,1035.5
2023-02-27T01:29:00+09:00,0.7,�k��,2,���k��,2.8,73.9,0,0,0,1,0,0,1020.8,1035.5
2023-02-27T01:30:00+09:00,0.8,�k��,2,���k��,2.8,73.8,0,0,0,1,0,0,1020.8,1035.5
2023-02-27T01:31:00+09:00,0.9,�k��,2,���k��,2.8,73.3,0,0,0,1,0,0,1020.8,1035.5
2023-02-27T01:32:00+09:00,1,�k��,2,���k��,2.6,72.8,0,0,0,1,0,0,1020.8,1035.5
2023-02-27T01:33:00+09:00,1.1,�k��,2,���k��,2.5,72.3,0,0,0,1,0,0,1020.8,1035.6
2023-02-27T01:34:00+09:00,1.1,�k��,2,���k��,2.5,72.3,0,0,0,1,0,0,1020.7,1035.4
2023-02-27T01:35:00+09:00,1.1,�k��,2,���k��,2.4,72.3,0,0,0,1,0,0,1020.8,1035.6
2023-02-27T01:36:00+09:00,1.1,�k��,2,���k��,2.5,72.5,0,0,0,1,0,0,1020.7,1035.4
2023-02-27T01:37:00+09:00,1.1,�k��,2,���k��,2.4,72.7,0,0,0,1,0,0,1020.8,1035.6
2023-02-27T01:38:00+09:00,1.2,�k��,2,���k��,2.5,73,0,0,0,1,0,0,1020.8,1035.6
2023-02-27T01:39:00+09:00,1.2,�k�k��,2.1,�k,2.5,73.3,0,0,0,1,0,0,1020.7,1035.4
2023-02-27T01:40:00+09:00,1.1,�k�k��,2.1,�k,2.4,73.3,0,0,0,1,0,0,1020.7,1035.5
2023-02-27T01:41:00+09:00,1.1,�k�k��,2.1,�k,2.4,73.5,0,0,0,1,0,0,1020.7,1035.5
2023-02-27T01:42:00+09:00,1.1,�k�k��,2.4,�k,2.3,73.3,0,0,0,1,0,0,1020.8,1035.6
2023-02-27T01:43:00+09:00,1,�k�k��,2.4,�k,2.2,73.4,0,0,0,1,0,0,1020.8,1035.6
2023-02-27T01:44:00+09:00,0.9,�k,2.4,�k,2.3,73.6,0,0,0,1,0,0,1020.8,1035.6
2023-02-27T01:45:00+09:00,0.9,�k,2.4,�k,2.3,73.8,0,0,0,1,0,0,1020.8,1035.6
2023-02-27T01:46:00+09:00,0.8,�k,2.4,�k,2.3,73.7,0,0,0,1,0,0,1020.8,1035.6
2023-02-27T01:47:00+09:00,0.7,�k,2.4,�k,2.3,73.5,0,0,0,1,0,0,1020.7,1035.5
2023-02-27T01:48:00+09:00,0.7,�k,2.4,�k,2.5,73.7,0,0,0,1,0,0,1020.8,1035.6
2023-02-27T01:49:00+09:00,0.6,�k,2.4,�k,2.5,73.7,0,0,0,1,0,0,1020.8,1035.6
2023-02-27T01:50:00+09:00,0.6,�k,2.4,�k,2.4,73.2,0,0,0,1,0,0,1020.7,1035.5
2023-02-27T01:51:00+09:00,0.7,�k�k��,2.4,�k,2.6,73.2,0,0,0,1,0,0,1020.8,1035.5
2023-02-27T01:52:00+09:00,0.7,�k�k��,2.1,�k��,2.5,72.7,0,0,0,1,0,0,1020.7,1035.4
2023-02-27T01:53:00+09:00,0.8,�k�k��,2.1,�k��,2.4,72.4,0,0,0,1,0,0,1020.8,1035.6
2023-02-27T01:54:00+09:00,0.8,�k�k��,2.1,�k��,2.5,72.4,0,0,0,1,0,0,1020.8,1035.6
2023-02-27T01:55:00+09:00,0.9,�k��,2.1,�k��,2.5,72.6,0,0,0,1,0,0,1020.8,1035.6
2023-02-27T01:56:00+09:00,1,�k��,2.1,�k��,2.6,72.3,0,0,0,1,0,0,1020.8,1035.5
2023-02-27T01:57:00+09:00,1.1,�k��,2.1,�k��,2.5,71.9,0,0,0,1,0,0,1020.7,1035.4
2023-02-27T01:58:00+09:00,1.1,�k��,2.1,�k��,2.5,71.6,0,0,0,1,0,0,1020.7,1035.4
2023-02-27T01:59:00+09:00,1.1,�k��,2.1,�k��,2.6,71.6,0,0,0,1,0,0,1020.7,1035.4
2023-02-27T02:00:00+09:00,1.2,�k��,2.1,�k��,2.6,71.5,0,0,0,1,0,0,1020.7,1035.4
2023-02-27T02:01:00+09:00,1.2,�k��,2,�k��,2.6,71.1,0,0,0,1,0,0,1020.7,1035.4
2023-02-27T02:02:00+09:00,1.2,�k��,2.1,�k,2.7,70.9,0,0,0,1,0,0,1020.7,1035.4
2023-02-27T02:03:00+09:00,1.2,�k��,2.4,�k�k��,2.8,70.8,0,0,0,1,0,0,1020.7,1035.4
2023-02-27T02:04:00+09:00,1.2,�k��,2.4,�k�k��,2.9,70.6,0,0,0,1,0,0,1020.8,1035.5
2023-02-27T02:05:00+09:00,1.2,�k��,2.4,�k�k��,2.8,69.9,0,0,0,1,0,0,1020.7,1035.4
2023-02-27T02:06:00+09:00,1.3,�k��,2.4,�k�k��,2.8,69.9,0,0,0,1,0,0,1020.7,1035.4
2023-02-27T02:07:00+09:00,1.3,�k��,2.4,�k�k��,2.7,69.3,0,0,0,1,0,0,1020.7,1035.4
2023-02-27T02:08:00+09:00,1.4,�k��,2.4,�k�k��,2.7,69.3,0,0,0,1,0,0,1020.7,1035.4
2023-02-27T02:09:00+09:00,1.5,�k��,2.8,�k��,2.7,69.7,0,0,0,1,0,0,1020.8,1035.5
2023-02-27T02:10:00+09:00,1.6,�k��,3,�k��,2.8,69.9,0,0,0,1,0,0,1020.8,1035.5
2023-02-27T02:11:00+09:00,1.7,�k��,3,�k��,2.9,69.9,0,0,0,1,0,0,1020.7,1035.4
2023-02-27T02:12:00+09:00,1.7,�k��,3,�k��,2.9,69.9,0,0,0,1,0,0,1020.7,1035.4
2023-02-27T02:13:00+09:00,1.7,�k��,3,�k��,2.8,69.4,0,0,0,1,0,0,1020.7,1035.4
2023-02-27T02:14:00+09:00,1.8,�k��,3,�k��,2.8,68.9,0,0,0,1,0,0,1020.6,1035.3
2023-02-27T02:15:00+09:00,1.9,�k��,3,�k��,2.9,68.8,0,0,0,1,0,0,1020.7,1035.4
2023-02-27T02:16:00+09:00,1.9,�k��,3,�k��,2.9,68.9,0,0,0,1,0,0,1020.7,1035.4
2023-02-27T02:17:00+09:00,1.9,�k�k��,3,�k��,2.9,68.8,0,0,0,1,0,0,1020.7,1035.4
2023-02-27T02:18:00+09:00,1.9,�k�k��,3,�k��,2.8,68.8,0,0,0,1,0,0,1020.6,1035.3
2023-02-27T02:19:00+09:00,1.8,�k�k��,3,�k��,2.8,68.8,0,0,0,1,0,0,1020.6,1035.3
2023-02-27T02:20:00+09:00,1.6,�k�k��,2.9,�k�k��,2.7,68.9,0,0,0,1,0,0,1020.6,1035.3
2023-02-27T02:21:00+09:00,1.5,�k�k��,2.9,�k�k��,2.7,69.2,0,0,0,1,0,0,1020.6,1035.3
2023-02-27T02:22:00+09:00,1.4,�k�k��,2.9,�k�k��,2.7,69.4,0,0,0,1,0,0,1020.7,1035.4
2023-02-27T02:23:00+09:00,1.4,�k�k��,2.9,�k�k��,2.6,69.5,0,0,0,1,0,0,1020.6,1035.3
2023-02-27T02:24:00+09:00,1.4,�k�k��,2.8,�k,2.8,69.9,0,0,0,1,0,0,1020.6,1035.3
2023-02-27T02:25:00+09:00,1.3,�k�k��,2.8,�k,2.7,70.1,0,0,0,1,0,0,1020.6,1035.3
2023-02-27T02:26:00+09:00,1.3,�k�k��,2.8,�k,2.7,70.2,0,0,0,1,0,0,1020.6,1035.3
2023-02-27T02:27:00+09:00,1.2,�k,2.8,�k,2.7,70.2,0,0,0,1,0,0,1020.7,1035.4
2023-02-27T02:28:00+09:00,1.2,�k,2.8,�k,2.6,70.2,0,0,0,1,0,0,1020.6,1035.3
2023-02-27T02:29:00+09:00,1.2,�k,2.8,�k,2.5,70.2,0,0,0,1,0,0,1020.7,1035.4
2023-02-27T02:30:00+09:00,1.1,�k,2.8,�k,2.4,70.2,0,0,0,1,0,0,1020.6,1035.4
2023-02-27T02:31:00+09:00,1.1,�k,2.8,�k,2.5,70.6,0,0,0,1,0,0,1020.6,1035.3
2023-02-27T02:32:00+09:00,1.1,�k,2.8,�k,2.6,71.2,0,0,0,1,0,0,1020.7,1035.4
2023-02-27T02:33:00+09:00,1,�k,2.5,�k�k��,2.6,71.3,0,0,0,1,0,0,1020.7,1035.4
2023-02-27T02:34:00+09:00,1,�k,2.4,�k��,2.5,70.9,0,0,0,1,0,0,1020.7,1035.4
2023-02-27T02:35:00+09:00,0.9,�k,2.3,�k�k��,2.6,70.9,0,0,0,1,0,0,1020.7,1035.4
2023-02-27T02:36:00+09:00,0.9,�k,2.2,�k��,2.6,71,0,0,0,1,0,0,1020.7,1035.4
2023-02-27T02:37:00+09:00,1,�k,2.2,�k��,2.5,70.8,0,0,0,1,0,0,1020.7,1035.4
2023-02-27T02:38:00+09:00,1,�k,2.2,�k��,2.4,70.6,0,0,0,1,0,0,1020.7,1035.5
2023-02-27T02:39:00+09:00,1,�k,2.2,�k��,2.5,70.6,0,0,0,1,0,0,1020.7,1035.4
2023-02-27T02:40:00+09:00,1,�k,2.2,�k��,2.6,70.9,0,0,0,1,0,0,1020.7,1035.4
2023-02-27T02:41:00+09:00,1.1,�k,2.2,�k��,2.6,70.9,0,0,0,1,0,0,1020.6,1035.3
2023-02-27T02:42:00+09:00,1.1,�k,2.2,�k��,2.5,70.4,0,0,0,1,0,0,1020.6,1035.3
2023-02-27T02:43:00+09:00,1.1,�k,2.2,�k��,2.4,70,0,0,0,1,0,0,1020.6,1035.4
2023-02-27T02:44:00+09:00,1.1,�k,2.2,�k��,2.4,70,0,0,0,1,0,0,1020.7,1035.5
2023-02-27T02:45:00+09:00,1.1,�k,2.2,�k��,2.4,70,0,0,0,1,0,0,1020.7,1035.5
2023-02-27T02:46:00+09:00,1.2,�k,2.1,�k�k��,2.5,70.5,0,0,0,1,0,0,1020.6,1035.3
2023-02-27T02:47:00+09:00,1.2,�k,2.1,�k�k��,2.4,70.3,0,0,0,1,0,0,1020.7,1035.5
2023-02-27T02:48:00+09:00,1.2,�k,2.1,�k�k��,2.4,70.2,0,0,0,1,0,0,1020.6,1035.4
2023-02-27T02:49:00+09:00,1.2,�k,2.1,�k�k��,2.4,70.5,0,0,0,1,0,0,1020.6,1035.4
2023-02-27T02:50:00+09:00,1.2,�k,2.1,�k�k��,2.3,70.5,0,0,0,1,0,0,1020.6,1035.4
2023-02-27T02:51:00+09:00,1.1,�k,2.1,�k�k��,2.4,70.7,0,0,0,1,0,0,1020.6,1035.4
2023-02-27T02:52:00+09:00,1,�k,2.1,�k�k��,2.3,70.9,0,0,0,1,0,0,1020.6,1035.4
2023-02-27T02:53:00+09:00,1,�k,2.1,�k�k��,2.3,70.8,0,0,0,1,0,0,1020.5,1035.3
2023-02-27T02:54:00+09:00,1,�k,2.1,�k�k��,2.4,71.1,0,0,0,1,0,0,1020.5,1035.3
2023-02-27T02:55:00+09:00,0.9,�k,2.1,�k�k��,2.4,71.4,0,0,0,1,0,0,1020.6,1035.4
2023-02-27T02:56:00+09:00,0.8,�k,2.1,�k�k��,2.3,71.2,0,0,0,1,0,0,1020.6,1035.4
2023-02-27T02:57:00+09:00,0.8,�k�k��,1.7,�k�k��,2.3,71.2,0,0,0,1,0,0,1020.6,1035.4
2023-02-27T02:58:00+09:00,0.8,�k�k��,1.7,�k�k��,2.4,71.1,0,0,0,1,0,0,1020.6,1035.4
2023-02-27T02:59:00+09:00,0.8,�k�k��,1.7,�k�k��,2.3,71.1,0,0,0,1,0,0,1020.5,1035.3
2023-02-27T03:00:00+09:00,0.8,�k�k��,2.4,�k�k��,2.4,71.2,0,0,0,1,0,0,1020.6,1035.4
2023-02-27T03:01:00+09:00,0.9,�k�k��,2.4,�k�k��,2.4,71.6,0,0,0,1,0,0,1020.7,1035.5
2023-02-27T03:02:00+09:00,0.9,�k�k��,2.4,�k�k��,2.4,71.2,0,0,0,1,0,0,1020.7,1035.5
2023-02-27T03:03:00+09:00,0.9,�k�k��,2.4,�k�k��,2.3,71.1,0,0,0,1,0,0,1020.7,1035.5
2023-02-27T03:04:00+09:00,,,,,,,,,,,,,,
2023-02-27T03:05:00+09:00,0.9,�k�k��,2.4,�k�k��,2.3,70.9,0,0,0,1,0,0,1020.6,1035.4
2023-02-27T03:06:00+09:00,0.9,�k�k��,2.4,�k�k��,2.3,71.1,0,0,0,1,0,0,1020.6,1035.4
2023-02-27T03:07:00+09:00,0.9,�k�k��,2.4,�k�k��,2.3,71.2,0,0,0,1,0,0,1020.7,1035.5
2023-02-27T03:08:00+09:00,0.9,�k�k��,2.4,�k�k��,2.2,71.2,0,0,0,1,0,0,1020.7,1035.5
2023-02-27T03:09:00+09:00,1,�k�k��,2.4,�k�k��,2.3,71.3,0,0,0,1,0,0,1020.7,1035.5
2023-02-27T03:10:00+09:00,1,�k�k��,2.2,�k�k��,2.4,71.8,0,0,0,1,0,0,1020.6,1035.4
2023-02-27T03:11:00+09:00,1,�k�k��,2.2,�k�k��,2.3,71.8,0,0,0,1,0,0,1020.7,1035.5
2023-02-27T03:12:00+09:00,0.9,�k�k��,2.2,�k�k��,2.4,71.7,0,0,0,1,0,0,1020.7,1035.5
2023-02-27T03:13:00+09:00,0.9,�k�k��,2.2,�k�k��,2.4,72.1,0,0,0,1,0,0,1020.7,1035.5
2023-02-27T03:14:00+09:00,0.9,�k�k��,2.2,�k�k��,2.4,71.9,0,0,0,1,0,0,1020.7,1035.5
2023-02-27T03:15:00+09:00,0.9,�k,2.2,�k�k��,2.3,71.6,0,0,0,1,0,0,1020.6,1035.4
2023-02-27T03:16:00+09:00,0.9,�k,2.2,�k�k��,2.2,71.5,0,0,0,1,0,0,1020.7,1035.5
2023-02-27T03:17:00+09:00,0.9,�k,2.2,�k�k��,2.2,71.8,0,0,0,1,0,0,1020.7,1035.5
2023-02-27T03:18:00+09:00,1,�k,2.2,�k�k��,2.3,72.2,0,0,0,1,0,0,1020.7,1035.5
2023-02-27T03:19:00+09:00,1.1,�k,2.3,�k,2.3,72.3,0,0,0,1,0,0,1020.7,1035.5
2023-02-27T03:20:00+09:00,1,�k,2.3,�k,2.3,72.4,0,0,0,1,0,0,1020.7,1035.5
2023-02-27T03:21:00+09:00,1,�k,2.3,�k,2.3,72.4,0,0,0,1,0,0,1020.7,1035.5
2023-02-27T03:22:00+09:00,1.1,�k,2.3,�k,2.2,72.3,0,0,0,1,0,0,1020.7,1035.5
2023-02-27T03:23:00+09:00,1.1,�k,2.3,�k,2.2,72.3,0,0,0,1,0,0,1020.7,1035.5
2023-02-27T03:24:00+09:00,1.1,�k,2.3,�k,2.2,72.5,0,0,0,1,0,0,1020.6,1035.4
2023-02-27T03:25:00+09:00,1.2,�k,2.3,�k,2.2,72.6,0,0,0,1,0,0,1020.7,1035.5
2023-02-27T03:26:00+09:00,1.3,�k,2.4,�k�k��,2.4,72.9,0,0,0,1,0,0,1020.6,1035.4
2023-02-27T03:27:00+09:00,1.3,�k,2.4,�k�k��,2.4,72.8,0,0,0,1,0,0,1020.6,1035.4
2023-02-27T03:28:00+09:00,1.3,�k,2.4,�k�k��,2.3,72.5,0,0,0,1,0,0,1020.6,1035.4
2023-02-27T03:29:00+09:00,1.3,�k,2.4,�k�k��,2.3,72.1,0,0,0,1,0,0,1020.6,1035.4
2023-02-27T03:30:00+09:00,1.3,�k,2.5,�k,2.2,72,0,0,0,1,0,0,1020.7,1035.5
2023-02-27T03:31:00+09:00,1.4,�k,2.5,�k,2.4,72.2,0,0,0,1,0,0,1020.7,1035.5
2023-02-27T03:32:00+09:00,1.4,�k�k��,2.5,�k,2.4,72.7,0,0,0,1,0,0,1020.7,1035.5
2023-02-27T03:33:00+09:00,1.5,�k�k��,2.5,�k,2.1,72,0,0,0,1,0,0,1020.6,1035.4
2023-02-27T03:34:00+09:00,1.5,�k�k��,2.8,�k�k��,2.1,71.8,0,0,0,1,0,0,1020.6,1035.4
2023-02-27T03:35:00+09:00,1.6,�k�k��,2.8,�k�k��,2.1,72.3,0,0,0,1,0,0,1020.7,1035.5
2023-02-27T03:36:00+09:00,1.7,�k�k��,2.8,�k�k��,2.2,72.8,0,0,0,1,0,0,1020.7,1035.5
2023-02-27T03:37:00+09:00,1.6,�k�k��,2.8,�k�k��,2.2,73,0,0,0,1,0,0,1020.7,1035.5
2023-02-27T03:38:00+09:00,1.7,�k��,2.8,�k�k��,2.2,73.1,0,0,0,1,0,0,1020.7,1035.5
2023-02-27T03:39:00+09:00,1.7,�k��,2.8,�k�k��,2.3,73.4,0,0,0,1,0,0,1020.6,1035.4
2023-02-27T03:40:00+09:00,1.7,�k��,2.8,�k�k��,2.2,73.1,0,0,0,1,0,0,1020.6,1035.4
2023-02-27T03:41:00+09:00,1.7,�k��,2.8,�k�k��,2.2,72.8,0,0,0,1,0,0,1020.7,1035.5
2023-02-27T03:42:00+09:00,1.8,�k�k��,2.8,�k�k��,2.3,72.7,0,0,0,1,0,0,1020.7,1035.5
2023-02-27T03:43:00+09:00,1.8,�k�k��,2.8,�k�k��,2.3,72.8,0,0,0,1,0,0,1020.7,1035.5
2023-02-27T03:44:00+09:00,1.8,�k�k��,2.6,�k,2.4,72.5,0,0,0,1,0,0,1020.7,1035.5
2023-02-27T03:45:00+09:00,1.8,�k�k��,2.6,�k,2.4,72.4,0,0,0,1,0,0,1020.7,1035.5
2023-02-27T03:46:00+09:00,1.7,�k�k��,2.6,�k,2.3,72,0,0,0,1,0,0,1020.6,1035.4
2023-02-27T03:47:00+09:00,1.7,�k�k��,2.6,�k,2.5,72.4,0,0,0,1,0,0,1020.7,1035.4
2023-02-27T03:48:00+09:00,1.7,�k�k��,2.6,�k,2.3,72,0,0,0,1,0,0,1020.7,1035.5
2023-02-27T03:49:00+09:00,1.6,�k�k��,2.6,�k,2.2,71.7,0,0,0,1,0,0,1020.7,1035.5
2023-02-27T03:50:00+09:00,1.4,�k�k��,2.6,�k,2.3,71.8,0,0,0,1,0,0,1020.6,1035.4
2023-02-27T03:51:00+09:00,1.2,�k�k��,2.5,�k�k��,2.3,72,0,0,0,1,0,0,1020.6,1035.4
2023-02-27T03:52:00+09:00,1.1,�k,2.2,�k�k��,2.3,72,0,0,0,1,0,0,1020.7,1035.5
2023-02-27T03:53:00+09:00,1,�k,2.2,�k�k��,2.3,72.2,0,0,0,1,0,0,1020.6,1035.4
2023-02-27T03:54:00+09:00,0.9,�k,2.2,�k�k��,2.3,72.3,0,0,0,0,0,0,1020.7,1035.5
2023-02-27T03:55:00+09:00,0.8,�k,1.9,�k�k��,2.2,72.3,0,0,0,0,0,0,1020.7,1035.5
2023-02-27T03:56:00+09:00,0.8,�k,1.9,�k�k��,2.2,72.1,0,0,0,0,0,0,1020.7,1035.5
2023-02-27T03:57:00+09:00,0.7,�k,1.7,�k,2.1,72.2,0,0,0,0,0,0,1020.7,1035.5
2023-02-27T03:58:00+09:00,0.7,�k,1.9,�k�k��,2.1,72.3,0,0,0,0,0,0,1020.7,1035.5
2023-02-27T03:59:00+09:00,0.7,�k�k��,1.9,�k�k��,2.1,72.4,0,0,0,0,0,0,1020.8,1035.6
2023-02-27T04:00:00+09:00,0.8,�k�k��,1.9,�k�k��,2.1,72.5,0,0,0,0,0,0,1020.8,1035.6
2023-02-27T04:01:00+09:00,0.8,�k�k��,1.9,�k�k��,2.1,72.6,0,0,0,0,0,0,1020.8,1035.6
2023-02-27T04:02:00+09:00,0.8,�k�k��,1.9,�k�k��,2.1,72.6,0,0,0,0,0,0,1020.8,1035.6
2023-02-27T04:03:00+09:00,0.8,�k�k��,1.9,�k�k��,2.2,72.7,0,0,0,0,0,0,1020.7,1035.5
2023-02-27T04:04:00+09:00,0.8,�k�k��,1.9,�k�k��,2.2,72.7,0,0,0,0,0,0,1020.7,1035.5
2023-02-27T04:05:00+09:00,0.8,�k�k��,1.9,�k�k��,2.2,72.5,0,0,0,0,0,0,1020.7,1035.5
2023-02-27T04:06:00+09:00,0.9,�k�k��,1.9,�k�k��,2.2,72.3,0,0,0,0,0,0,1020.7,1035.5
2023-02-27T04:07:00+09:00,0.9,�k�k��,1.9,�k�k��,2.2,72.5,0,0,0,0,0,0,1020.7,1035.5
2023-02-27T04:08:00+09:00,0.9,�k�k��,2,�k�k��,2.2,72,0,0,0,0,0,0,1020.7,1035.5
2023-02-27T04:09:00+09:00,0.9,�k�k��,2.2,�k,2.2,72.2,0,0,0,0,0,0,1020.7,1035.5
2023-02-27T04:10:00+09:00,1,�k�k��,2.2,�k,2.1,71.8,0,0,0,0,0,0,1020.8,1035.6
2023-02-27T04:11:00+09:00,1,�k�k��,2.2,�k,2.1,71.7,0,0,0,0,0,0,1020.8,1035.6
2023-02-27T04:12:00+09:00,1,�k�k��,2.2,�k,2,71.8,0,0,0,0,0,0,1020.8,1035.6
2023-02-27T04:13:00+09:00,1,�k�k��,2.2,�k,2,71.9,0,0,0,0,0,0,1020.8,1035.6
2023-02-27T04:14:00+09:00,1.1,�k�k��,2.7,�k�k��,2.1,72.4,0,0,0,0,0,0,1020.8,1035.6
2023-02-27T04:15:00+09:00,1.2,�k�k��,2.7,�k�k��,2.1,72.7,0,0,0,0,0,0,1020.7,1035.5
2023-02-27T04:16:00+09:00,1.2,�k�k��,2.7,�k�k��,2,72.4,0,0,0,0,0,0,1020.8,1035.6
2023-02-27T04:17:00+09:00,1.3,�k�k��,2.8,�k��,2,72.3,0,0,0,0,0,0,1020.8,1035.6
2023-02-27T04:18:00+09:00,1.4,�k�k��,2.8,�k��,2.1,72.7,0,0,0,0,0,0,1020.8,1035.6
2023-02-27T04:19:00+09:00,1.4,�k�k��,2.9,�k�k��,2.1,72.8,0,0,0,0,0,0,1020.8,1035.6
2023-02-27T04:20:00+09:00,1.5,�k�k��,2.9,�k�k��,2,72.7,0,0,0,0,0,0,1020.7,1035.5
2023-02-27T04:21:00+09:00,1.6,�k�k��,2.9,�k�k��,2,72.6,0,0,0,0,0,0,1020.8,1035.6
2023-02-27T04:22:00+09:00,1.8,�k��,2.9,�k�k��,2,72.7,0,0,0,0,0,0,1020.8,1035.6
2023-02-27T04:23:00+09:00,1.9,�k��,2.9,�k�k��,2.1,72.9,0,0,0,0,0,0,1020.9,1035.7
2023-02-27T04:24:00+09:00,1.8,�k�k��,2.9,�k�k��,1.9,72.8,0,0,0,0,0,0,1020.9,1035.7
2023-02-27T04:25:00+09:00,1.8,�k�k��,2.9,�k�k��,1.8,72.5,0,0,0,0,0,0,1020.9,1035.7
2023-02-27T04:26:00+09:00,1.7,�k�k��,2.9,�k�k��,1.8,72.8,0,0,0,0,0,0,1020.9,1035.7
2023-02-27T04:27:00+09:00,1.6,�k�k��,2.9,�k�k��,1.8,73.1,0,0,0,0,0,0,1020.9,1035.7
2023-02-27T04:28:00+09:00,1.6,�k�k��,2.9,�k�k��,1.9,73.7,0,0,0,0,0,0,1020.9,1035.7
2023-02-27T04:29:00+09:00,1.6,�k�k��,2.9,�k�k��,1.9,73.9,0,0,0,0,0,0,1020.9,1035.7
2023-02-27T04:30:00+09:00,1.6,�k�k��,2.9,�k�k��,1.7,73.9,0,0,0,0,0,0,1021,1035.8
2023-02-27T04:31:00+09:00,1.6,�k�k��,3.1,�k��,1.7,73.8,0,0,0,0,0,0,1020.9,1035.7
2023-02-27T04:32:00+09:00,1.5,�k�k��,3.1,�k��,1.7,74.1,0,0,0,0,0,0,1020.9,1035.7
2023-02-27T04:33:00+09:00,1.6,�k�k��,3.9,�k��,1.8,74.6,0,0,0,0,0,0,1020.9,1035.7
2023-02-27T04:34:00+09:00,1.7,�k�k��,3.9,�k��,1.8,75,0,0,0,0,0,0,1021,1035.8
2023-02-27T04:35:00+09:00,1.9,�k�k��,3.9,�k��,1.9,74.8,0,0,0,0,0,0,1021,1035.8
2023-02-27T04:36:00+09:00,2,�k�k��,3.9,�k��,1.9,74.9,0,0,0,0,0,0,1021,1035.8
2023-02-27T04:37:00+09:00,2.1,�k�k��,3.9,�k��,2,74.6,0,0,0,0,0,0,1021,1035.8
2023-02-27T04:38:00+09:00,2.1,�k��,3.9,�k��,2,74.6,0,0,0,0,0,0,1020.9,1035.7
2023-02-27T04:39:00+09:00,2.2,�k��,3.9,�k��,2,74.3,0,0,0,0,0,0,1021,1035.8
2023-02-27T04:40:00+09:00,2.2,�k��,3.9,�k��,2.1,74.1,0,0,0,0,0,0,1021,1035.8
2023-02-27T04:41:00+09:00,2.3,�k��,4.6,�k��,2,74,0,0,0,0,0,0,1021,1035.8
2023-02-27T04:42:00+09:00,2.4,�k��,4.6,�k��,1.9,73.7,0,0,0,0,0,0,1021,1035.8
2023-02-27T04:43:00+09:00,2.4,�k��,4.6,�k��,1.9,73.4,0,0,0,0,0,0,1020.9,1035.7
2023-02-27T04:44:00+09:00,2.2,�k��,4.6,�k��,1.9,73.4,0,0,0,0,0,0,1020.9,1035.7
2023-02-27T04:45:00+09:00,2.2,�k��,4.6,�k��,1.9,73.4,0,0,0,0,0,0,1020.9,1035.7
2023-02-27T04:46:00+09:00,2.2,�k��,4.7,�k��,1.8,73.1,0,0,0,0,0,0,1021,1035.8
2023-02-27T04:47:00+09:00,2.3,�k��,4.7,�k��,1.9,73.2,0,0,0,0,0,0,1021,1035.8
2023-02-27T04:48:00+09:00,2.4,�k��,4.8,�k��,2,73.6,0,0,0,0,0,0,1021,1035.8
2023-02-27T04:49:00+09:00,2.6,�k��,5.1,�k��,2.1,73.5,0,0,0,0,0,0,1021,1035.8
2023-02-27T04:50:00+09:00,2.7,�k��,5.5,�k��,1.9,73.2,0,0,0,0,0,0,1020.9,1035.7
2023-02-27T04:51:00+09:00,2.8,�k��,5.5,�k��,1.8,72.8,0,0,0,0,0,0,1020.9,1035.7
2023-02-27T04:52:00+09:00,2.9,�k��,5.5,�k��,1.9,73,0,0,0,0,0,0,1020.9,1035.7
2023-02-27T04:53:00+09:00,3,�k��,5.5,�k��,2,73.5,0,0,0,0,0,0,1021,1035.8
2023-02-27T04:54:00+09:00,3.2,�k��,5.5,�k��,2,73.2,0,0,0,0,0,0,1020.9,1035.7
2023-02-27T04:55:00+09:00,3.3,�k��,5.5,�k��,2,73.2,0,0,0,0,0,0,1020.9,1035.7
2023-02-27T04:56:00+09:00,3.2,�k��,5.5,�k��,2.1,73.1,0,0,0,0,0,0,1020.9,1035.7
2023-02-27T04:57:00+09:00,3.2,�k��,5.5,�k��,2.1,72.8,0,0,0,0,0,0,1021,1035.8
2023-02-27T04:58:00+09:00,3.1,�k��,5.5,�k��,2.2,72.8,0,0,0,0,0,0,1021,1035.8
2023-02-27T04:59:00+09:00,3.1,�k��,5.5,�k��,2.2,72.5,0,0,0,0,0,0,1021,1035.8
2023-02-27T05:00:00+09:00,2.8,�k��,4.7,�k��,2,72.3,0,0,0,0,0,0,1020.9,1035.7
2023-02-27T05:01:00+09:00,2.6,�k��,4.7,�k��,1.8,71.7,0,0,0,0,0,0,1020.9,1035.7